Omaha, IA

6:15 AM CDT on June 24, 2017 (GMT -0500)
Eppley Airfield

Weather History for KOMA - September, 2011

Change the Weather History Date:

Saturday, September 24, 2011

  Actual Average Record
Temperature  
Mean Temperature 59 °F 62 °F  
Max Temperature 72 °F 74 °F 91 °F (1892)
Min Temperature 45 °F 50 °F 31 °F (1965)
Degree Days  
Heating Degree Days 6 5  
Month to date heating degree days 93 58  
Since 1 July heating degree days 93 66  
Cooling Degree Days 0 2  
Month to date cooling degree days 81 106  
Year to date cooling degree days 1329 1086  
Growing Degree Days 8 (Base 50)    
Moisture  
Dew Point 44 °F    
Average Humidity 64    
Maximum Humidity 93    
Minimum Humidity 35    
Precipitation  
Precipitation 0.00 in 0.08 in 1.91 in (1913)
Month to date precipitation 0.99 2.19  
Year to date precipitation 25.29 25.30  
Snow  
Snow 0.00 in 0.00 in - ()
Month to date snowfall 0.0 0.0  
Since 1 July snowfall 0.0 0.0  
Snow Depth 0.00 in    
Sea Level Pressure  
Sea Level Pressure 29.98 in    
Wind  
Wind Speed 4 mph (ESE)    
Max Wind Speed 15 mph    
Max Gust Speed 21 mph    
Visibility 10 miles    
Events Fog    
T = Trace of Precipitation, MM = Missing Value Source: NWS Daily Summary

Daily Weather History Graph

Daily Weather History Graph

Search for Another Location

Airport or City:

Trip Planner

Search our weather history database for the weather conditions in past years. The results will help you decide how hot, cold, wet, or windy it might be!

Date:

Astronomy

Sep. 24, 2011 Rise Set
Actual Time 7:12 AM CDT 7:17 PM CDT
Civil Twilight 6:45 AM CDT 7:45 PM CDT
Nautical Twilight 6:13 AM CDT 8:17 PM CDT
Astronomical Twilight 5:40 AM CDT 8:50 PM CDT
Moon 3:47 AM CDT 5:26 PM CDT
Length of Visible Light 12h 59m
Length of Day
12h 04m
Waning Crescent, 11% of the Moon is Illuminated
Sep 24
Waning Crescent
Sep 27
New
Oct 3
First Quarter
Oct 11
Full
Oct 19
Last Quarter

Hourly Weather History & Observations

Time (CDT) Temp. Windchill Dew Point Humidity Pressure Visibility Wind Dir Wind Speed Gust Speed Precip Events Conditions
12:52 AM 51.1 °F - 46.9 °F 86% 30.01 in 10.0 mi Calm Calm - N/A   Partly Cloudy
1:52 AM 50.0 °F - 46.0 °F 86% 30.01 in 10.0 mi Calm Calm - N/A   Partly Cloudy
2:52 AM 50.0 °F - 46.9 °F 89% 30.01 in 10.0 mi Calm Calm - N/A   Scattered Clouds
3:52 AM 48.0 °F - 46.0 °F 93% 30.00 in 10.0 mi Calm Calm - N/A   Scattered Clouds
4:52 AM 46.9 °F - 45.0 °F 93% 29.99 in 10.0 mi Calm Calm - N/A   Scattered Clouds
5:52 AM 48.0 °F - 43.0 °F 83% 29.99 in 10.0 mi Calm Calm - N/A   Partly Cloudy
6:52 AM 46.0 °F 42.5 °F 42.1 °F 86% 30.00 in 10.0 mi SE 6.9 mph - N/A   Scattered Clouds
7:52 AM 46.9 °F - 43.0 °F 86% 30.01 in 10.0 mi Calm Calm - N/A Fog Patches of Fog
8:52 AM 51.1 °F - 45.0 °F 80% 30.01 in 10.0 mi SSE 3.5 mph - N/A   Partly Cloudy
9:52 AM 55.0 °F - 46.0 °F 72% 30.01 in 10.0 mi Calm Calm - N/A   Scattered Clouds
10:52 AM 60.8 °F - 46.4 °F 59% 30.00 in 10.0 mi SSE 4.6 mph - N/A   Scattered Clouds
11:52 AM 64.0 °F - 46.9 °F 54% 29.99 in 10.0 mi Variable 3.5 mph - N/A   Scattered Clouds
12:52 PM 66.2 °F - 46.4 °F 49% 29.98 in 10.0 mi East 4.6 mph - N/A   Scattered Clouds
1:52 PM 69.1 °F - 43.0 °F 39% 29.95 in 10.0 mi SE 8.1 mph - N/A   Scattered Clouds
2:52 PM 70.0 °F - 43.0 °F 38% 29.92 in 10.0 mi SSE 6.9 mph - N/A   Scattered Clouds
3:52 PM 71.1 °F - 42.1 °F 35% 29.91 in 10.0 mi NE 4.6 mph - N/A   Scattered Clouds
5:52 PM 69.1 °F - 43.0 °F 39% 29.93 in 10.0 mi East 9.2 mph - N/A   Scattered Clouds
6:52 PM 66.0 °F - 44.1 °F 45% 29.94 in 10.0 mi East 8.1 mph - N/A   Partly Cloudy
7:52 PM 61.0 °F - 45.0 °F 56% 29.95 in 10.0 mi East 9.2 mph - N/A   Partly Cloudy
8:52 PM 59.0 °F - 44.1 °F 58% 29.97 in 10.0 mi ESE 6.9 mph - N/A   Clear
9:52 PM 57.9 °F - 43.0 °F 58% 29.98 in 10.0 mi ESE 9.2 mph - N/A   Clear
10:52 PM 53.1 °F - 43.0 °F 69% 29.99 in 10.0 mi SE 5.8 mph - N/A   Clear
11:52 PM 53.1 °F - 43.0 °F 69% 29.98 in 10.0 mi Calm Calm - N/A   Partly Cloudy